RH
4 3 3 3 3 3 3 3 3 3 4 4 4 20 25 21 15 13 12 14 12 17 14 11 13 13 13 10 9 8 15 16 10 10 7 6 7 6 48 64 66 66 55 60 93
4 4 4 4 4 4 4 4 4 5 5 5 4 19 21 25 16 13 14 16 15 16 17 13 12 13 12 13 9 10 16 13 10 8 8 7 6 6 45 76 87 76 70 71 95
5 5 5 5 5 5 5 5 5 5 5 5 5 5 28 27 16 12 15 15 16 15 17 16 16 14 12 12 13 11 13 10 9 10 9 8 7 6 34 43 85 88 98 95 98
5 5 5 5 5 6 6 6 6 6 6 6 6 7 8 29 18 11 11 14 16 15 16 17 17 17 16 17 16 17 14 15 14 12 9 9 7 6 15 23 55 56 49 90 100
5 5 5 6 6 6 8 7 8 7 8 7 19 19 19 14 11 9 8 9 14 16 16 17 17 18 22 20 18 18 19 19 16 12 10 9 7 7 6 28 57 79 90 95 98
6 6 6 6 6 8 8 8 9 10 8 17 34 18 14 11 10 9 9 7 12 14 14 17 19 18 20 22 24 21 21 19 14 12 11 10 9 9 28 48 74 88 78 71 75
7 7 7 7 7 8 9 11 12 18 19 21 18 14 10 10 9 10 10 9 8 9 11 12 19 19 20 21 21 20 21 18 17 14 14 12 12 9 21 71 69 81 74 65 75
8 7 6 6 8 12 14 17 29 30 28 24 16 14 10 9 8 9 8 8 8 9 8 10 18 16 17 21 22 21 26 24 17 11 12 13 16 12 12 16 84 76 81 83 64
7 5 5 10 16 17 24 29 27 31 22 14 12 10 11 10 9 10 11 9 7 9 9 9 16 10 10 33 23 18 20 16 15 12 13 15 20 14 11 12 14 33 60 56 51
9 7 10 18 20 20 21 20 22 19 16 16 14 11 10 12 13 11 10 11 9 8 9 9 11 17 18 18 23 16 16 15 16 13 15 15 16 13 14 46 45 33 14 55 49
12 9 14 20 19 17 14 15 11 13 13 12 12 12 12 11 15 13 12 10 10 12 17 15 22 21 16 13 12 13 15 16 14 14 17 14 17 16 59 61 55 60 56 16 46
12 12 17 20 25 26 24 24 35 17 15 15 13 12 11 16 16 17 16 15 22 30 17 23 24 16 14 18 15 18 21 26 18 17 16 18 18 43 69 72 70 60 64 70 30
10 14 19 24 20 34 23 28 27 18 13 13 16 15 12 12 14 19 19 17 24 32 28 26 22 22 25 37 28 24 35 34 28 24 16 20 20 73 66 73 72 74 63 67 73
12 21 17 21 29 38 31 24 24 25 34 17 15 16 14 13 22 27 23 23 29 35 32 31 30 33 40 41 36 30 40 43 42 39 38 21 33 83 68 67 78 76 74 65 71
21 39 34 32 41 50 35 26 20 40 69 15 17 18 15 16 21 30 31 28 40 42 39 48 44 43 46 43 41 38 43 50 48 48 32 32 29 75 72 80 76 79 77 70 69
20 30 36 42 44 30 21 23 20 60 47 22 18 20 24 21 33 35 41 35 39 41 44 58 43 50 52 45 48 48 55 54 49 47 54 37 29 92 93 97 81 82 83 78 73
29 33 32 27 25 24 26 45 51 62 28 28 25 27 31 37 39 39 50 58 71 55 72 56 63 58 46 61 55 63 72 81 71 71 59 39 71 94 83 99 97 95 91 83 83
23 35 36 31 27 46 53 40 57 47 42 30 33 32 39 36 43 51 52 63 59 65 82 93 84 72 53 71 76 79 82 84 80 79 75 55 80 96 79 94 98 99 98 84 91
33 30 38 41 39 40 28 82 69 48 40 43 40 48 48 41 40 52 64 68 60 64 79 91 94 56 51 56 60 71 91 78 94 84 94 78 89 81 67 73 86 91 97 92 94
25 34 40 41 41 30 56 60 43 37 40 44 53 49 56 57 51 56 61 64 64 58 64 74 96 59 52 56 53 72 66 94 94 96 77 88 94 98 91 92 82 89 96 98 96
34 24 35 34 27 29 78 46 38 35 38 48 53 57 62 59 57 66 82 66 61 62 60 71 81 77 56 78 85 84 84 75 95 96 98 94 97 94 94 89 84 87 98 97 100
27 45 37 31 39 57 57 40 34 38 38 45 51 59 63 60 68 76 81 74 63 68 73 71 77 95 77 51 50 60 71 91 95 96 94 92 96 73 73 76 83 79 93 96 98
33 33 30 28 73 69 38 40 36 40 42 43 54 57 57 61 67 69 67 64 61 68 79 60 74 96 85 58 56 87 64 61 88 64 88 94 94 52 66 77 81 84 81 94 95
26 72 30 30 37 45 44 44 41 36 43 44 65 68 71 68 63 62 71 66 69 65 55 46 73 77 81 74 87 94 73 63 62 74 80 85 88 76 72 88 80 84 84 84 92
36 49 42 68 52 47 46 45 45 48 40 44 54 62 84 68 67 70 63 69 73 79 60 64 85 78 81 86 82 83 92 81 80 74 78 90 82 82 81 88 89 78 84 86 86
35 37 38 41 44 44 52 46 44 44 44 48 58 60 58 70 62 60 62 68 73 88 97 74 91 93 98 87 60 65 82 76 73 86 83 82 77 62 72 73 79 67 74 92 88
36 30 29 49 43 48 47 43 49 46 48 48 56 69 67 56 44 47 56 63 67 92 95 90 92 99 94 81 87 66 78 95 96 96 99 96 84 72 77 77 68 60 71 88 83
Wind_Speed
5 3 3 3 2 1 1 1 1 1 1 2 3 6 9 9 13 11 11 15 10 9 7 5 3 5 2 3 2 2 4 2 3 5 4 9 8 17 9 13 4 7 8 19 36
3 2 2 2 1 1 1 1 2 2 2 3 4 7 9 4 5 15 11 10 8 8 7 7 5 3 1 2 1 4 4 9 4 2 5 15 7 17 5 5 7 8 10 29 37
0 1 1 1 1 1 1 2 3 3 3 3 4 6 9 5 5 13 8 10 9 7 9 9 8 5 2 3 3 1 4 4 1 4 12 9 15 12 6 2 9 23 29 38 38
0 1 1 1 1 1 2 2 3 3 3 3 3 4 7 5 2 13 10 8 7 7 6 8 6 3 3 3 4 1 2 6 8 13 9 7 11 4 2 4 10 22 32 40 41
1 1 2 1 1 1 2 1 2 2 3 6 11 10 11 10 8 15 13 9 7 5 7 8 10 6 2 4 6 1 6 14 15 9 10 11 6 4 4 2 9 23 33 35 39
1 1 1 1 1 1 1 1 2 4 6 11 8 8 5 7 12 12 14 7 8 5 2 5 5 5 3 2 2 8 7 11 8 9 6 4 6 6 2 6 17 26 33 32 35
1 2 1 1 1 1 2 4 10 18 17 16 14 13 13 8 11 11 8 6 4 5 3 3 3 4 5 6 10 5 5 4 16 21 7 18 6 2 4 16 23 28 33 32 36
1 2 2 3 3 6 8 15 17 13 12 11 7 3 7 9 11 8 11 7 6 5 3 2 2 6 6 8 7 7 6 5 6 19 11 13 4 6 30 24 14 27 31 32 33
1 2 4 6 9 12 16 17 13 12 10 10 7 5 4 9 19 11 14 18 6 11 6 5 13 11 15 4 5 8 3 4 10 8 6 8 4 22 34 25 24 21 23 30 32
3 4 7 12 17 16 15 14 10 9 9 9 6 6 4 13 17 5 10 22 12 6 11 9 8 5 6 6 1 2 2 2 2 7 7 4 2 12 25 25 26 27 24 28 32
3 5 11 18 15 18 19 15 8 8 19 10 10 12 6 7 19 17 16 18 17 18 6 11 8 4 3 3 2 1 2 2 3 7 7 5 3 8 21 37 34 37 38 25 34
3 5 14 18 12 9 9 7 6 8 7 11 11 10 8 15 11 20 18 9 18 7 3 7 6 2 3 6 4 5 2 4 4 5 5 9 5 9 21 25 30 34 40 41 23
4 6 15 16 5 5 8 10 9 8 5 1 5 5 3 10 9 15 16 6 8 7 6 6 3 6 7 7 6 3 3 3 3 6 2 6 4 7 13 27 30 39 38 42 41
7 8 11 12 5 6 6 9 7 4 4 1 2 1 1 3 6 15 9 6 6 4 3 4 8 6 7 5 3 1 4 4 5 4 3 4 4 7 16 18 26 34 39 41 44
9 10 10 9 5 4 5 9 8 1 4 1 2 3 2 7 6 16 9 9 4 5 5 2 7 7 8 6 4 3 3 3 5 3 1 3 2 8 8 15 21 28 34 38 39
8 5 5 4 3 3 8 10 7 6 3 2 3 1 3 8 5 10 16 8 8 4 5 4 5 7 4 7 4 6 4 4 3 3 1 4 5 8 9 13 20 28 31 34 38
6 6 6 8 9 10 9 7 5 6 4 3 3 3 5 5 4 3 7 10 5 4 6 5 7 5 14 5 6 12 5 3 4 2 4 3 6 5 10 10 14 23 28 30 32
14 14 14 9 4 3 3 5 7 4 3 3 4 4 5 3 4 5 3 4 6 4 2 3 5 9 13 4 4 4 3 2 3 2 3 4 6 3 5 12 15 19 22 26 30
14 14 13 9 6 2 2 6 6 2 3 5 3 4 4 5 4 4 4 3 2 5 2 2 2 2 9 5 5 5 2 4 3 1 1 2 4 10 13 13 19 26 27 29 30
13 15 15 9 7 4 6 3 1 2 4 2 3 3 2 6 3 3 2 3 5 6 1 1 1 7 5 8 11 2 6 1 0 3 4 4 3 4 16 17 17 23 27 27 27
3 4 10 10 12 12 4 2 0 5 3 4 3 3 4 1 4 3 4 0 3 5 3 2 3 4 5 4 1 6 4 4 4 1 3 1 1 5 9 12 13 20 24 28 26
4 4 8 3 6 4 2 2 3 7 9 5 5 5 3 3 5 4 1 2 6 3 2 2 3 2 4 3 4 4 9 4 3 0 2 2 2 8 10 16 13 21 25 27 24
6 8 11 3 4 2 3 5 5 6 5 3 3 5 4 2 3 3 3 3 10 6 1 1 2 2 2 3 4 4 10 9 2 3 5 2 2 13 14 15 18 19 21 22 25
3 3 8 16 8 6 4 2 2 5 8 8 5 5 4 5 5 3 4 6 4 6 13 5 4 5 5 6 3 3 10 13 6 3 2 3 6 10 13 10 15 17 20 22 21
3 2 2 0 4 6 3 1 2 3 3 7 5 3 4 2 2 4 2 4 6 7 5 5 2 4 0 4 4 2 6 9 12 7 3 4 5 9 10 10 16 17 19 23 25
4 6 5 6 3 8 4 0 2 2 3 2 3 1 3 3 4 1 2 2 1 5 3 3 2 3 3 8 3 6 8 8 5 4 0 3 4 5 15 13 14 20 21 20 29
10 15 9 3 2 4 2 3 1 5 5 3 7 5 5 3 11 6 6 3 0 4 2 3 5 3 4 9 11 4 4 2 3 2 4 1 6 9 8 14 19 20 21 23 26
Wind_Direction
207 208 224 226 215 221 249 254 255 220 218 183 154 160 143 101 60 62 32 9 354 1 342 324 287 333 347 80 131 106 66 192 249 168 273 324 354 9 18 131 125 192 187 185 165
194 185 226 212 190 188 176 226 233 223 212 196 185 184 168 107 55 51 18 5 349 359 12 6 17 348 62 56 89 104 120 212 220 288 308 313 316 336 41 7 40 87 137 167 164
146 192 236 227 188 182 203 221 229 236 212 201 200 198 197 166 23 11 5 1 349 345 9 18 20 39 34 11 36 52 188 211 303 6 344 299 305 316 140 211 192 159 154 166 168
243 233 223 213 207 186 226 228 234 231 206 179 172 166 171 170 44 353 342 330 337 339 349 14 19 32 50 17 345 344 33 36 333 331 335 314 309 286 351 301 208 183 175 173 173
194 237 228 176 255 257 265 233 227 192 178 141 132 120 123 97 21 349 331 301 289 308 16 28 37 8 6 327 343 129 345 339 336 341 321 311 293 318 265 246 183 176 176 177 183
204 203 205 171 250 263 240 185 127 132 129 132 127 125 117 77 14 356 339 319 273 290 10 52 20 347 291 342 57 322 312 331 345 16 308 324 294 355 309 179 176 177 182 189 192
190 206 207 207 173 135 103 105 116 109 111 116 121 118 85 53 0 355 6 0 316 302 280 40 24 339 336 338 343 323 0 360 19 343 31 353 343 202 258 178 180 191 191 198 197
272 212 164 130 123 118 114 119 120 112 107 118 122 110 79 40 15 5 2 20 356 327 276 95 36 60 7 325 24 24 45 6 346 18 355 12 264 14 354 348 214 198 201 202 205
96 123 127 123 120 118 122 123 114 103 92 106 90 96 73 27 18 36 12 4 44 79 96 122 81 55 33 48 27 11 66 15 328 32 351 48 326 330 345 347 342 301 226 217 218
101 118 131 134 124 121 122 111 109 103 94 109 70 82 69 41 31 64 26 25 54 107 81 58 63 68 15 48 182 337 14 338 307 326 342 2 348 309 355 20 3 355 316 242 225
120 128 144 143 132 132 129 122 109 78 75 74 90 91 111 43 45 39 11 25 51 57 51 29 68 72 42 57 122 54 20 298 275 320 344 308 13 315 31 28 20 13 13 305 241
136 147 154 151 141 151 162 115 89 131 85 80 92 97 93 50 48 39 36 48 37 48 13 26 63 278 14 16 60 49 30 336 298 335 324 328 309 91 46 37 23 18 16 3 303
128 153 162 162 144 134 137 116 119 141 98 94 73 72 117 60 41 16 29 38 46 35 20 109 342 32 95 40 41 86 48 338 297 319 9 3 8 40 25 28 18 17 13 10 8
128 143 166 186 172 156 151 150 140 136 76 332 332 24 124 111 48 33 26 15 41 21 30 54 353 88 73 53 12 243 317 351 336 43 295 71 275 35 15 12 16 10 7 5 6
136 144 151 180 171 166 171 186 171 322 44 323 82 145 46 85 156 8 32 50 59 13 71 324 28 26 41 344 335 255 334 310 246 215 315 287 104 357 11 0 3 360 360 2 2
133 130 119 121 139 134 130 162 164 46 267 342 116 159 55 78 55 21 34 62 55 62 48 62 42 49 315 316 50 338 347 344 41 119 223 243 158 34 15 357 349 354 354 357 356
101 97 92 95 101 103 119 129 43 106 277 360 37 78 73 23 77 56 46 43 50 25 15 340 50 352 14 348 347 14 28 349 359 12 228 360 74 41 7 6 355 349 348 352 354
94 83 77 80 89 96 134 61 77 277 351 354 26 78 70 27 35 20 63 41 14 60 68 36 351 8 356 48 294 308 42 146 297 282 294 320 147 156 40 10 360 351 350 351 355
100 74 56 48 39 61 135 56 191 262 335 350 13 57 8 11 94 74 58 35 18 20 89 52 83 347 49 24 19 336 38 343 268 263 170 164 71 228 7 3 359 358 352 351 351
108 62 39 47 47 84 72 122 247 331 345 20 98 39 76 356 61 76 50 301 341 11 338 170 151 26 356 24 356 304 327 333 296 236 241 103 90 304 344 343 355 354 345 343 346
105 76 17 63 61 70 104 145 335 13 68 61 57 85 63 71 42 46 358 133 343 325 27 79 102 313 35 11 11 345 356 298 268 201 267 159 147 351 334 336 345 350 336 339 340
71 57 15 25 53 36 59 20 68 13 49 68 77 66 72 40 40 48 89 303 342 334 28 342 105 69 189 139 34 14 341 276 285 225 12 117 159 355 344 333 346 350 338 336 341
84 59 21 170 103 5 50 36 73 31 24 61 87 74 53 60 86 48 17 47 36 43 80 332 65 115 258 343 7 8 358 357 228 104 25 32 340 358 340 345 350 340 339 335 349
107 47 55 77 94 118 109 37 71 69 44 78 101 83 60 41 27 35 14 7 33 59 53 81 26 154 172 196 201 355 19 21 35 58 79 39 346 335 341 328 329 336 344 349 353
85 84 123 102 13 103 97 76 67 38 63 40 38 134 143 112 27 357 26 0 40 25 49 88 71 69 279 231 203 58 8 27 41 32 70 311 338 326 321 306 301 335 347 355 353
130 142 113 99 121 88 14 51 113 70 52 10 111 95 142 132 172 216 48 50 286 26 54 36 160 61 322 232 190 73 41 18 42 19 344 283 267 255 315 325 320 340 350 346 3
125 132 133 40 61 77 243 168 179 115 56 68 153 107 80 148 128 91 75 53 232 155 117 107 136 131 253 221 274 293 313 347 311 256 185 360 241 306 317 324 334 339 348 356 355